This is the latest recevied weather packets stored in our database for station/object DC4THF-13. If no packets are shown the sender has not sent any weather packets the latest 10 day(s).
| Time | Temp. | Humidity | Pressure | Rain* | Wind** | Luminosity | Snow |
|---|---|---|---|---|---|---|---|
| 1777812192 | 28.89° C | 21% | 1004.5 hPa | 0 mm | - | - | - |
| 1777811589 | 29.44° C | 20% | 1004.5 hPa | 0 mm | - | - | - |
| 1777810986 | 30° C | 20% | 1004.5 hPa | 0 mm | - | - | - |
| 1777810383 | 30° C | 20% | 1004.6 hPa | 0 mm | - | - | - |
| 1777809779 | 29.44° C | 20% | 1004.7 hPa | 0 mm | - | - | - |
| 1777809176 | 29.44° C | 20% | 1004.8 hPa | 0 mm | - | - | - |
| 1777808573 | 30° C | 13% | 1005 hPa | 0 mm | - | - | - |
| 1777807970 | 30° C | 20% | 1005 hPa | 0 mm | - | - | - |
| 1777807366 | 29.44° C | 20% | 1005.2 hPa | 0 mm | - | - | - |
| 1777806762 | 29.44° C | 20% | 1005.4 hPa | 0 mm | - | - | - |
| 1777806158 | 28.89° C | 21% | 1005.5 hPa | 0 mm | - | - | - |
| 1777805554 | 27.78° C | 21% | 1005.7 hPa | 0 mm | - | - | - |
| 1777804980 | 28.89° C | 20% | 1005.8 hPa | 0 mm | - | - | - |
| 1777804376 | 29.44° C | 21% | 1005.8 hPa | 0 mm | - | - | - |
| 1777803772 | 29.44° C | 21% | 1005.9 hPa | 0 mm | - | - | - |
| 1777803169 | 28.89° C | 21% | 1006 hPa | 0 mm | - | - | - |
| 1777802566 | 28.89° C | 22% | 1006.2 hPa | 0 mm | - | - | - |
| 1777801962 | 28.33° C | 22% | 1006.3 hPa | 0 mm | - | - | - |
| 1777801359 | 28.33° C | 22% | 1006.4 hPa | 0 mm | - | - | - |
| 1777800756 | 28.33° C | 23% | 1006.7 hPa | 0 mm | - | - | - |
| 1777800153 | 27.78° C | 23% | 1006.8 hPa | 0 mm | - | - | - |
| 1777799550 | 26.67° C | 27% | 1007 hPa | 0 mm | - | - | - |
| 1777798947 | 26.67° C | 29% | 1007.2 hPa | 0 mm | - | - | - |
| 1777798344 | 26.67° C | 27% | 1007.3 hPa | 0 mm | - | - | - |
| 1777797741 | 26.11° C | 28% | 1007.4 hPa | 0 mm | - | - | - |
* Rain latest hour (hover to see other rain measurements)
** Current wind speed in m/s (hover to see current wind gust speed)